Probability
3 3 1 0 0 0 0 0 0 0 0 0 0 0 0 0 0 0 0 1 4 7 8 7 6 5 4 3 2 1 0 1 2 2 1 0 1 1 0 0 0 0 0
3 3 2 1 0 0 0 0 0 0 0 0 0 0 0 0 0 0 0 1 4 7 10 11 9 7 5 3 2 1 0 0 1 1 0 0 1 1 1 0 0 0 0
4 4 3 2 1 0 0 0 0 0 0 0 0 0 0 0 0 0 0 1 3 6 10 12 11 9 8 5 3 1 1 0 0 0 0 0 1 1 1 0 1 1 1
5 4 3 2 1 0 0 0 0 0 0 0 0 0 0 0 0 0 0 0 1 3 6 9 10 10 10 10 7 4 3 1 0 0 0 0 0 0 0 0 1 1 1
5 4 4 3 1 0 0 0 0 0 0 0 0 0 0 0 0 0 0 0 0 1 2 5 8 9 11 13 12 8 5 4 2 1 0 0 0 0 0 0 0 0 0
4 4 4 3 1 1 1 0 0 0 0 0 0 0 0 0 0 0 0 0 0 0 0 2 4 6 8 12 13 10 8 8 7 4 2 1 1 0 0 0 0 0 0
4 3 3 3 3 3 3 1 1 0 0 0 0 0 0 0 0 0 0 0 0 0 0 0 1 2 5 7 9 9 9 10 11 9 6 3 1 0 0 0 0 0 0
5 4 3 3 4 4 4 3 2 1 1 0 0 0 0 0 0 0 0 0 0 0 0 0 0 0 2 3 5 7 7 9 10 9 8 6 2 0 0 0 0 0 0
5 5 4 3 3 4 4 3 3 3 2 1 0 0 0 0 0 0 0 0 0 0 0 0 0 0 0 1 2 4 4 5 5 6 6 6 3 1 0 0 0 0 0
5 4 3 3 3 3 3 3 3 3 2 1 0 0 0 0 0 0 0 0 0 0 0 0 1 1 1 0 1 1 2 2 3 4 5 4 3 2 1 0 0 0 0
4 3 3 3 3 3 3 3 3 3 3 1 0 0 0 0 0 0 0 0 0 0 0 0 1 1 1 1 1 1 2 2 2 3 4 2 2 3 2 0 0 0 0
2 2 3 3 3 3 3 3 3 3 3 2 1 0 0 0 0 0 0 0 0 0 0 0 0 1 1 1 1 2 2 2 1 1 2 1 1 2 1 0 0 0 0
0 1 3 3 3 3 3 3 3 3 3 2 1 0 0 0 0 0 0 0 0 0 0 0 0 0 1 1 1 1 1 1 0 0 0 0 0 1 1 1 0 0 0
0 1 2 3 3 3 3 3 3 3 3 3 1 0 0 0 0 0 0 0 0 0 0 0 0 0 0 0 0 0 0 0 0 0 0 0 0 0 1 1 0 0 0
0 1 3 3 3 3 4 3 3 3 3 3 2 1 0 0 0 0 0 0 0 0 0 0 0 0 0 1 0 0 0 0 0 0 0 0 0 0 1 1 0 0 0
2 2 3 3 3 4 4 4 3 3 3 3 3 1 0 0 0 0 0 0 0 0 0 0 0 0 0 0 0 0 0 0 0 0 0 0 0 0 0 0 0 0 0
5 4 4 3 3 4 4 4 3 3 3 3 3 2 1 0 0 0 0 0 0 0 0 0 0 0 0 0 0 0 0 0 0 0 0 0 0 0 0 0 0 0 0
6 6 5 4 4 5 5 4 4 4 4 4 3 2 1 0 0 0 0 0 0 0 0 0 0 0 0 0 0 0 0 0 0 0 0 0 0 0 0 0 0 0 0
7 7 6 5 5 6 5 4 4 5 4 3 2 1 0 0 0 1 1 0 0 0 0 0 0 0 0 0 0 0 0 0 0 0 0 0 0 0 0 0 0 0 0
7 7 6 5 5 5 4 4 4 3 2 1 0 0 0 0 0 1 2 1 0 0 0 0 0 0 0 0 0 0 0 0 0 0 0 0 0 0 0 0 0 0 0
6 5 5 5 5 4 3 3 3 2 0 0 0 0 0 0 0 1 1 1 0 0 0 0 0 0 0 0 0 0 0 0 0 0 0 0 0 0 0 0 0 0 0
5 5 6 7 5 4 2 2 2 2 1 1 1 1 1 0 0 0 0 0 0 0 0 0 0 0 0 0 0 0 0 0 0 0 0 0 0 0 0 0 0 0 0
6 6 7 7 5 4 2 2 3 3 3 2 2 2 1 0 0 0 0 0 0 0 0 0 0 0 0 0 0 0 0 0 0 0 0 0 0 0 0 0 0 0 0
6 6 6 6 5 4 3 3 3 3 3 3 3 3 1 0 0 0 0 0 0 0 0 0 0 0 0 0 0 0 0 0 0 0 0 0 0 0 0 0 0 0 0
6 6 6 6 4 3 3 3 2 3 3 3 3 2 1 0 0 0 0 0 0 0 0 0 0 0 0 0 0 0 0 0 0 0 0 0 0 0 0 0 0 0 0
6 6 6 6 4 3 3 2 2 2 3 3 3 2 1 0 0 0 0 0 0 0 0 0 0 0 0 0 0 0 0 0 0 0 0 0 0 0 0 0 0 0 0
Wind_Speed
3 2 2 2 3 2 2 2 2 2 2 3 3 3 3 4 4 4 4 13 14 14 14 14 14 14 14 13 13 13 12 12 11 11 11 11 11 11 11 11 11 10 10
2 2 2 2 2 3 3 3 3 3 2 2 3 3 4 4 5 5 4 8 14 14 14 15 15 15 15 14 14 14 13 13 12 12 12 12 12 12 12 12 12 11 11
3 2 2 2 2 2 3 2 2 1 2 2 2 3 2 3 4 5 5 4 6 11 14 14 14 15 15 15 15 15 14 13 12 12 12 12 12 12 12 12 12 12 11
2 2 1 2 2 1 1 1 1 1 1 1 1 2 1 2 3 4 4 4 4 5 10 14 14 14 15 15 15 15 14 14 13 13 13 13 13 12 12 13 13 12 12
2 1 1 1 1 1 1 1 1 1 1 2 2 2 1 2 3 4 4 5 5 4 4 8 12 11 12 12 13 14 14 14 14 14 14 14 14 13 13 13 13 13 13
1 1 1 1 1 1 0 0 1 1 2 2 2 1 1 2 2 2 3 3 3 4 4 4 4 5 8 8 9 10 11 12 11 11 11 12 12 12 12 11 11 11 12
1 1 0 0 1 1 1 1 1 1 1 1 0 1 2 1 1 1 2 2 2 3 3 3 2 2 3 7 7 8 9 10 10 11 10 10 10 9 9 9 10 9 10
1 1 1 0 0 1 1 1 1 1 1 1 2 1 1 3 2 1 1 2 2 2 2 3 2 3 2 2 3 7 8 9 10 9 9 10 9 9 9 9 9 9 10
1 1 1 1 1 1 1 2 2 2 2 1 2 3 2 2 1 2 1 1 1 1 1 2 2 2 3 2 2 3 6 6 8 9 8 8 8 8 9 10 10 9 9
1 1 1 1 1 1 1 2 1 2 2 1 1 1 2 3 2 1 2 1 0 1 1 1 1 2 1 1 2 2 3 4 5 6 7 6 7 7 8 9 10 10 9
1 1 0 1 1 1 1 1 1 1 1 2 1 1 1 1 2 2 1 1 2 1 1 1 0 0 0 1 1 2 3 1 1 3 3 4 4 4 5 6 6 6 6
2 1 0 0 1 1 1 1 1 0 1 1 1 1 2 2 2 2 2 1 0 1 2 2 2 1 1 1 2 4 5 4 2 1 1 1 1 1 2 2 3 3 3
1 1 1 0 1 1 1 1 1 1 0 1 1 1 1 2 2 2 3 1 1 0 2 3 2 2 2 3 3 6 6 6 5 5 4 4 4 3 2 1 1 1 1
0 1 1 1 1 1 1 1 1 1 1 1 1 1 0 0 1 2 3 3 2 1 2 2 2 3 3 3 5 6 4 7 7 6 6 6 6 5 5 5 5 5 4
1 1 2 2 2 2 2 1 2 1 1 2 2 2 1 1 1 1 2 3 4 2 0 1 2 2 2 3 5 4 5 8 8 8 7 8 8 8 8 7 7 7 6
2 2 2 2 2 2 2 2 2 2 3 2 2 3 3 2 2 1 1 1 2 3 2 1 1 1 2 4 6 5 6 10 11 10 9 10 10 10 10 9 9 9 8
2 2 2 2 3 3 3 3 3 3 4 3 3 3 3 3 2 2 2 2 2 3 4 2 2 2 3 4 4 4 4 5 5 11 11 11 11 11 11 11 10 10 10
2 2 3 3 3 4 3 3 4 4 4 4 4 4 4 3 4 3 2 3 3 3 5 5 2 2 3 3 3 4 4 5 5 10 11 12 11 11 11 11 10 10 10
3 3 3 4 3 3 3 4 4 4 4 4 4 4 4 4 4 3 4 3 3 4 4 5 3 2 2 2 3 4 5 4 5 7 9 10 11 11 11 11 10 10 10
3 3 3 3 3 3 3 4 4 4 4 4 4 4 4 4 3 3 4 4 4 5 4 5 4 2 2 2 3 3 3 3 3 4 6 6 8 10 10 10 10 10 9
4 3 3 3 3 3 3 4 4 5 4 4 4 4 5 7 7 4 4 3 4 4 4 4 3 3 2 2 2 1 3 2 2 2 2 3 3 4 4 6 7 8 8
4 4 4 4 4 3 5 7 6 4 4 4 4 4 5 6 7 8 8 7 6 5 5 4 3 3 2 2 2 2 2 2 1 1 2 1 2 2 2 2 3 5 6
4 4 4 4 4 4 7 8 8 5 5 4 4 4 4 5 6 5 6 8 7 7 6 5 5 3 3 2 3 3 2 2 1 1 2 1 1 1 1 1 2 3 4
4 3 3 4 4 4 6 8 9 6 5 4 4 4 4 4 4 5 5 6 5 4 4 3 4 3 3 3 4 4 4 3 2 1 2 1 1 0 1 1 1 1 2
4 3 3 3 4 3 5 7 7 4 4 4 4 4 4 4 5 7 6 6 5 4 5 7 6 5 5 5 5 4 3 4 2 1 1 2 0 1 1 1 1 0 1
4 4 4 3 3 3 4 6 6 4 4 3 3 4 5 5 6 6 5 5 4 2 3 4 5 5 4 3 4 4 4 4 2 0 1 2 1 1 1 2 1 1 1
Wind_Direction
173 184 205 205 208 204 206 219 222 229 238 242 228 209 203 188 179 176 187 190 190 193 195 194 195 196 197 196 197 198 199 200 199 198 200 201 202 202 203 204 203 202 202
172 175 189 201 206 199 200 205 208 211 227 233 241 222 201 184 184 181 187 196 198 199 203 202 202 202 203 203 204 204 205 206 205 204 205 207 208 209 211 210 210 210 210
172 169 176 206 217 204 194 199 213 210 231 233 238 235 208 191 184 191 187 192 202 208 209 210 208 207 207 208 210 210 210 210 210 209 210 211 212 213 215 216 216 215 214
177 166 182 225 229 197 180 195 206 200 241 238 242 248 219 194 194 197 196 199 204 212 217 217 215 212 211 212 213 214 213 213 214 215 215 215 214 214 215 218 219 217 216
172 169 198 233 202 152 176 206 183 191 219 239 243 242 228 214 214 211 206 206 206 209 210 220 218 215 216 218 219 219 218 218 219 220 220 220 220 219 219 220 223 221 220
180 166 195 213 165 137 161 192 210 224 218 227 256 267 250 237 216 213 210 205 206 205 201 207 208 216 217 219 220 219 217 216 218 220 223 222 221 221 220 219 221 223 223
185 159 184 174 177 174 218 215 214 237 250 197 129 323 327 319 252 221 199 175 199 213 192 192 194 200 223 226 227 220 218 216 215 215 219 221 219 215 215 218 220 220 221
200 173 174 202 224 205 251 247 212 204 249 183 161 142 333 346 351 282 212 178 200 216 191 193 191 197 214 220 229 225 224 223 222 220 219 219 220 220 218 220 223 224 223
222 221 203 194 227 210 237 254 219 196 223 253 184 163 168 221 290 332 320 214 178 164 181 179 175 208 211 212 231 242 233 230 230 230 227 223 219 220 223 224 225 225 224
238 244 212 209 221 224 248 261 230 202 184 226 259 215 192 173 170 277 336 350 26 135 157 150 195 208 201 202 190 179 201 226 233 236 240 233 222 221 225 230 233 232 231
309 292 277 266 259 247 250 275 292 207 184 197 210 221 229 206 178 173 247 331 13 37 69 87 145 150 135 174 173 116 112 121 221 233 233 235 230 225 229 235 240 241 237
314 331 7 296 284 290 272 267 288 257 214 211 213 200 189 188 195 178 195 215 27 10 42 48 52 47 68 71 89 97 98 93 91 81 70 31 321 250 258 262 260 256 253
329 327 339 316 304 307 321 343 21 355 277 240 234 232 212 216 186 166 165 180 146 17 38 43 38 46 63 60 63 79 81 85 83 81 73 68 61 60 51 19 354 358 340
250 337 26 25 10 5 6 20 31 8 39 33 22 10 1 259 167 170 166 154 135 52 48 45 36 38 57 65 64 66 73 87 86 83 78 74 68 64 60 58 54 51 52
91 53 54 44 22 20 19 40 40 24 40 45 30 26 37 29 62 147 161 163 155 153 95 59 56 34 64 73 68 70 67 74 79 78 77 76 72 69 65 63 61 61 62
67 68 58 51 41 34 35 49 46 31 51 42 50 49 37 24 40 51 104 134 146 151 137 81 80 85 72 77 74 73 75 75 71 74 73 73 71 69 66 62 62 61 61
77 77 72 66 55 43 40 49 51 47 54 43 39 53 42 37 47 42 60 78 91 115 122 91 72 78 78 81 72 68 73 67 69 76 77 74 73 70 68 66 63 60 59
75 77 75 68 63 55 46 55 60 53 57 51 41 48 39 49 50 44 65 79 88 100 122 118 91 79 82 102 94 84 78 77 74 74 74 73 71 69 68 65 61 57 55
79 72 73 71 66 60 56 59 68 67 67 62 55 54 42 55 55 50 63 74 82 92 102 120 110 90 82 93 91 83 80 70 79 78 74 70 70 70 68 67 63 59 55
85 77 77 73 73 69 67 70 74 70 66 63 63 60 52 56 60 67 74 77 90 92 95 106 105 98 96 100 95 93 80 57 69 73 69 72 67 65 65 67 66 64 58
92 85 74 62 61 70 72 85 84 80 73 66 57 57 61 62 62 71 89 95 99 101 104 108 110 101 97 109 113 115 106 85 53 65 66 55 51 46 44 53 62 65 62
82 77 71 69 62 62 78 86 94 82 74 76 70 54 57 49 51 61 77 87 102 121 124 118 113 122 128 128 121 125 120 103 60 342 90 63 67 53 24 33 57 66 65
94 85 78 75 66 58 77 88 92 90 80 76 73 61 56 48 50 61 67 68 68 83 114 135 134 145 148 158 140 127 128 123 141 202 107 66 29 50 320 25 62 67 63
108 100 86 79 73 59 75 89 93 85 79 69 70 74 74 50 55 74 77 68 59 52 70 99 128 138 141 151 153 152 146 111 72 42 89 99 344 339 340 359 352 53 46
113 106 101 91 84 59 75 97 101 92 80 64 58 62 75 67 60 78 84 79 63 42 55 71 87 92 97 106 118 106 98 100 82 323 16 104 99 16 355 323 311 315 316
126 118 100 94 95 81 85 106 110 107 94 76 55 45 55 71 68 77 92 98 90 66 69 66 59 59 69 80 98 124 138 128 123 258 288 98 109 91 2 305 297 294 299